RH
57 51 46 48 53 55 96 93 97 98 99 100 100 100 98 98 99 97 96 84 88 89 76 84 71 65 60 64 70 64 46 39 35 41 35 34 41 45 49 54 41 36 28 36
62 40 49 68 59 55 70 95 85 98 100 95 94 94 94 91 83 84 75 74 64 59 57 60 58 59 59 60 65 54 53 52 46 38 36 27 23 22 22 32 49 50 50 37
63 49 56 86 87 64 68 73 73 91 100 92 92 97 98 82 54 50 55 50 49 49 50 58 67 60 55 51 52 60 57 53 52 44 40 38 31 27 30 29 26 28 37 41
84 66 88 98 80 68 76 92 63 72 56 53 61 59 58 53 52 52 50 50 48 48 50 53 55 57 60 57 49 46 52 54 48 43 43 40 40 35 27 28 31 34 30 25
86 81 57 91 91 94 95 96 95 75 54 50 48 52 60 51 48 48 47 48 50 49 47 44 45 52 56 55 58 52 46 45 45 44 38 37 35 36 35 33 32 31 32 33
81 78 89 94 82 81 69 93 97 63 55 53 47 72 71 57 56 54 52 50 46 47 49 45 46 49 51 52 53 54 56 53 47 45 47 45 43 40 36 33 37 37 33 32
97 94 76 82 92 78 93 96 81 78 66 61 72 67 63 53 51 54 54 52 51 52 58 59 58 56 56 64 63 60 54 50 47 49 54 51 49 49 47 42 36 38 41 38
90 94 93 92 79 85 91 79 59 57 56 57 60 58 57 58 59 60 63 63 64 62 59 57 57 59 61 56 58 59 56 52 47 41 39 42 49 54 50 51 47 43 42 43
97 94 87 97 91 80 81 64 59 56 56 57 59 66 65 67 68 66 64 63 62 62 62 65 65 65 64 64 64 61 60 58 57 55 51 47 44 37 41 52 53 51 50 46
97 84 88 84 72 53 53 53 51 53 56 56 61 61 60 61 63 64 66 71 74 74 74 71 72 72 69 62 61 61 58 55 57 57 54 51 48 46 44 39 38 48 50 52
92 85 87 78 72 78 54 52 50 52 58 61 62 66 75 74 69 75 82 73 72 84 92 89 79 74 72 73 77 79 82 83 74 70 74 84 87 84 61 47 46 43 36 40
80 56 68 55 58 50 48 49 54 60 63 68 72 79 80 80 83 100 100 100 99 99 98 79 79 73 70 75 85 90 89 94 100 100 100 100 100 99 100 97 83 55 50 44
45 43 52 49 50 50 50 55 60 60 65 69 73 81 85 89 96 99 99 98 100 94 97 98 79 72 75 84 88 86 91 90 94 100 100 100 100 100 98 99 100 98 80 65
47 44 49 49 48 51 54 58 59 53 58 62 77 78 97 99 99 99 98 100 100 91 94 100 88 79 87 95 95 94 94 91 96 99 100 100 100 100 100 100 100 98 100 93
53 49 47 47 51 56 60 62 60 59 58 63 65 78 98 99 99 100 98 100 98 87 86 85 83 73 78 84 88 91 93 89 94 95 96 98 98 99 100 100 100 97 92 99
57 55 54 55 57 61 64 62 66 71 68 69 73 82 99 100 99 100 98 100 97 94 87 86 82 74 77 87 92 93 92 93 97 98 98 100 100 100 100 99 100 99 99 100
56 56 57 58 59 60 64 70 77 74 72 71 77 90 98 98 98 98 99 100 96 94 89 93 85 76 80 92 96 100 100 98 98 94 96 99 100 100 98 98 97 99 97 98
56 57 59 60 62 69 77 82 86 84 84 85 92 99 100 99 100 100 100 99 99 96 96 96 89 83 92 94 97 97 99 98 97 96 96 96 100 100 97 97 98 98 97 98
68 71 75 79 82 83 84 86 86 86 94 90 96 99 99 95 97 99 100 94 96 100 92 90 88 92 91 90 98 98 97 97 96 96 97 96 99 99 99 98 98 99 98 99
69 70 70 76 86 86 83 75 72 75 80 93 95 92 93 94 95 96 93 88 94 100 95 88 89 90 90 90 100 100 97 96 97 97 97 97 97 98 99 98 98 98 98 99
51 54 60 75 80 76 72 68 66 69 80 86 95 92 76 74 79 95 87 88 92 100 83 87 90 92 93 94 100 100 100 97 96 97 97 97 97 97 98 98 98 99 100 99
53 62 67 77 76 71 65 64 70 79 75 72 67 60 64 64 81 97 98 95 99 100 100 94 94 93 95 95 95 99 98 99 97 97 96 97 97 98 98 98 98 98 98 98
61 59 66 64 62 64 64 59 55 56 60 62 69 68 80 96 100 100 91 85 96 100 100 100 100 93 93 96 96 97 96 97 100 97 97 97 97 97 97 97 98 98 98 98
55 60 62 61 63 58 50 62 89 98 100 100 97 97 96 92 92 94 80 79 83 99 98 100 98 96 95 96 97 97 97 96 98 100 99 98 98 98 99 98 97 97 97 97
61 60 62 61 55 66 72 76 97 83 82 82 85 85 86 87 83 78 82 87 91 98 100 98 95 96 96 95 95 95 98 98 98 99 100 100 100 99 99 99 97 93 94 99
61 62 60 52 72 73 76 80 86 84 80 78 78 72 73 78 80 78 76 79 88 94 98 97 95 97 97 97 95 98 98 98 98 96 99 100 100 99 99 100 100 100 100 100
63 62 52 76 71 72 75 78 84 84 88 87 81 68 70 73 77 76 77 83 86 94 97 96 96 97 97 97 96 94 98 99 100 100 98 100 100 100 100 99 100 100 100 100
Wind_Speed
15 7 10 11 14 8 9 6 5 6 5 6 4 3 5 13 19 18 20 23 23 17 19 14 22 20 21 22 18 15 22 22 20 16 13 10 6 3 2 2 1 3 5 6
4 9 15 14 18 11 11 7 6 7 8 5 8 3 5 10 16 18 15 13 15 19 20 17 13 10 12 18 12 18 15 18 18 14 15 12 12 10 7 9 7 7 9 7
5 14 8 6 15 17 13 18 3 5 5 10 16 16 17 20 24 23 19 16 17 17 14 18 18 17 14 8 10 10 10 12 13 14 16 14 12 11 10 12 12 12 12 12
4 8 6 4 12 12 16 21 16 17 15 17 19 22 23 22 26 25 22 19 19 19 18 18 14 11 9 10 10 8 7 6 7 7 11 11 11 13 12 12 13 13 14 14
2 2 2 4 7 8 8 10 15 14 12 12 16 22 18 21 21 19 19 19 19 19 18 15 15 15 13 11 11 11 13 13 13 13 14 14 12 12 13 15 17 16 18 18
3 2 4 1 14 18 5 5 11 13 8 8 6 6 2 14 17 19 19 17 18 19 21 21 22 20 18 16 16 17 18 18 18 19 19 17 16 16 16 17 17 19 22 21
2 1 4 7 21 13 3 1 8 2 7 15 6 4 10 15 18 18 18 20 21 21 20 19 21 23 23 22 22 21 23 25 24 24 24 22 23 20 20 20 22 22 24 25
2 4 5 17 6 5 4 4 5 10 11 11 10 12 15 16 17 18 19 20 21 24 25 26 25 25 24 25 27 28 30 30 27 27 27 28 28 28 27 27 26 24 25 26
2 2 5 6 2 4 3 1 5 7 8 6 9 11 13 16 18 20 20 21 22 24 26 26 26 26 27 27 27 28 30 32 33 33 31 31 31 33 35 34 32 32 32 32
2 2 3 9 6 4 6 5 6 8 9 11 14 16 18 20 21 22 22 24 24 24 24 25 25 24 23 26 28 29 32 33 35 37 38 39 37 36 36 37 40 42 39 38
2 4 7 15 11 5 3 4 7 8 9 12 14 15 17 19 21 21 21 23 24 25 26 27 26 27 27 28 29 31 34 35 37 39 40 40 41 39 39 39 38 42 45 45
4 6 6 6 4 6 1 7 7 8 8 10 12 13 16 18 19 18 20 23 24 25 26 25 25 27 28 29 29 33 38 39 39 38 38 35 39 42 41 38 37 39 42 44
4 7 8 6 8 5 0 3 6 9 10 11 12 14 15 18 17 17 17 21 23 26 25 25 28 29 29 31 32 36 39 41 41 41 40 38 36 38 41 36 34 35 36 38
6 5 6 12 5 4 2 5 9 10 10 13 14 16 15 16 17 18 19 20 24 26 23 22 27 28 27 29 32 35 38 39 41 41 39 37 36 36 39 38 36 34 34 34
1 1 3 6 6 3 3 6 10 11 13 15 16 16 15 16 18 21 21 22 25 26 23 26 30 31 29 31 34 37 37 39 39 38 36 34 34 36 39 38 34 33 31 31
2 2 2 4 5 5 6 9 11 13 15 17 17 17 14 15 17 18 19 22 26 26 27 28 32 31 29 30 33 36 36 36 36 34 33 30 31 31 31 33 31 31 32 32
4 4 6 7 8 9 9 9 11 15 17 18 18 18 16 16 18 19 20 22 24 24 27 25 31 30 27 27 31 34 34 34 33 33 31 28 24 22 19 24 26 29 29 27
3 4 5 7 8 7 8 11 14 15 17 17 18 16 17 18 20 21 22 22 24 27 26 26 29 27 26 25 28 31 31 30 30 28 27 26 20 17 14 16 20 26 25 22
3 4 6 8 9 11 12 14 16 19 19 17 17 17 18 20 21 21 21 22 23 26 30 28 28 24 25 24 26 28 27 28 27 24 22 21 17 14 13 15 19 22 20 20
5 8 10 11 11 12 13 17 18 19 18 19 20 21 24 21 19 20 19 21 22 22 28 26 27 23 24 24 25 26 26 24 23 20 16 13 11 8 6 8 11 14 15 16
9 11 10 10 9 11 14 18 21 21 17 20 21 20 22 23 23 19 21 23 22 23 26 24 25 23 22 23 22 24 23 22 19 18 13 9 5 2 3 7 10 12 15 18
11 12 12 12 14 17 19 18 18 17 18 18 19 22 24 26 23 20 20 23 19 20 23 25 22 20 19 20 20 19 20 20 21 19 16 12 9 8 9 12 15 19 21 23
11 12 11 12 15 15 16 20 21 21 22 22 22 25 25 21 18 15 16 15 18 19 19 21 19 17 17 17 17 16 16 17 18 19 17 15 15 15 15 15 18 20 23 25
11 11 12 13 14 18 14 14 14 14 13 8 12 17 17 17 14 12 16 19 16 13 16 19 18 14 15 15 16 16 16 15 14 15 14 15 15 15 16 17 18 19 20 20
11 11 12 15 13 9 12 11 9 13 13 13 15 16 17 17 18 21 20 18 15 12 14 17 15 12 12 14 15 15 14 14 14 12 11 12 12 12 12 13 14 15 15 16
11 11 13 10 6 8 9 10 10 11 13 14 15 18 19 19 19 20 19 16 14 11 11 16 12 10 11 12 16 15 11 11 11 10 9 8 7 8 10 10 11 12 13 14
11 11 9 5 5 5 7 10 9 10 12 14 17 21 21 21 21 24 20 15 10 8 9 12 11 9 9 12 14 16 16 11 9 8 7 7 5 5 4 4 5 6 7 9
Wind_Direction
312 301 326 310 332 344 32 37 40 23 78 107 124 180 177 118 93 89 88 77 62 48 54 60 53 60 59 47 26 37 53 48 46 32 41 57 65 93 57 33 9 283 284 266
299 326 352 18 2 8 33 12 67 37 74 83 132 149 38 22 125 118 104 110 85 69 56 58 56 39 15 34 46 28 46 40 25 22 3 39 42 27 343 317 304 287 281 290
301 334 337 25 14 32 42 25 2 39 54 71 66 69 69 64 61 68 80 76 76 63 49 46 47 43 40 39 5 355 4 1 8 352 342 4 7 17 6 348 329 310 300 286
301 350 30 19 1 24 51 30 47 74 78 76 85 73 64 67 71 68 66 55 48 41 42 44 45 39 23 6 22 5 356 355 327 327 313 318 327 338 343 334 330 323 317 311
70 306 260 5 7 359 6 33 25 46 50 60 77 68 43 46 52 54 46 37 29 25 15 2 360 0 352 343 338 326 314 314 311 312 303 305 306 299 303 310 310 314 313 313
358 61 358 314 327 331 338 42 4 9 10 17 44 66 322 37 51 38 29 17 5 359 354 351 344 338 329 323 318 322 318 309 304 301 297 298 299 293 288 287 285 293 301 304
1 1 309 335 326 318 40 270 328 26 14 43 52 56 34 21 16 14 5 357 354 354 359 356 344 335 330 330 327 318 308 303 300 293 290 288 285 290 285 280 275 277 281 290
0 26 356 341 356 51 227 274 28 49 42 47 50 32 19 10 6 3 359 352 346 339 336 334 333 333 332 327 323 321 318 316 310 301 296 290 281 278 275 276 276 272 273 275
41 202 269 268 88 202 208 43 44 41 30 36 35 23 7 1 360 357 354 350 346 343 338 338 336 333 327 328 326 322 318 315 312 307 301 293 287 279 271 269 268 269 270 269
132 289 295 313 24 98 131 86 39 19 24 12 8 356 349 349 350 350 350 350 346 346 344 341 340 337 331 326 324 320 316 313 312 310 306 301 292 283 275 270 266 265 266 266
302 275 266 268 257 271 127 71 11 357 359 356 348 349 354 350 344 342 342 342 341 338 333 330 329 329 328 329 327 323 320 316 313 312 309 302 295 290 285 274 266 264 260 261
229 242 217 266 179 170 28 11 359 347 345 351 350 347 340 343 343 339 337 336 337 332 329 330 330 327 326 328 325 322 318 317 313 308 302 292 292 291 286 276 272 261 255 252
279 295 233 164 165 186 348 15 353 344 342 343 340 335 331 331 336 336 335 336 337 332 325 327 331 325 327 325 324 323 321 318 317 313 306 297 289 282 279 276 274 267 254 246
313 197 149 167 207 196 318 356 350 349 343 339 333 333 341 340 334 333 330 328 331 331 325 325 324 322 326 322 325 325 322 322 319 315 311 305 298 285 274 264 263 261 258 245
292 293 206 183 186 219 289 335 338 341 340 339 335 329 330 328 327 328 327 334 332 334 332 330 328 328 326 327 329 328 329 325 322 317 310 304 299 289 275 263 255 257 259 251
166 165 182 226 238 252 286 316 323 329 330 328 326 325 318 320 320 326 326 332 333 333 335 330 330 330 327 329 328 329 329 325 323 319 315 308 303 292 277 255 250 245 247 244
201 259 270 264 269 274 278 301 318 321 320 320 321 322 319 318 320 323 325 326 335 333 331 334 334 331 329 330 330 331 330 328 327 325 323 319 312 296 280 253 244 238 244 243
237 267 276 277 279 278 296 315 323 323 321 319 318 313 318 315 314 317 321 325 327 329 342 338 338 337 335 335 336 335 334 333 332 327 325 327 323 309 279 252 243 243 243 239
287 306 312 310 305 305 311 319 321 321 315 319 309 306 309 317 314 310 318 321 326 329 336 341 341 340 338 341 343 341 340 339 337 334 330 328 329 321 294 266 249 241 239 227
296 306 309 303 297 299 306 315 316 312 315 312 306 306 308 307 314 321 320 318 322 322 334 340 340 339 341 344 347 345 346 348 346 349 344 340 335 325 285 253 234 224 216 211
311 317 322 320 313 309 313 311 311 309 306 304 301 305 311 310 314 303 314 317 322 315 334 341 341 340 342 345 349 351 355 -0 5 5 12 21 32 86 154 170 174 179 184 187
310 314 316 309 312 313 314 314 310 311 316 319 317 315 308 310 305 306 292 312 312 323 332 340 339 343 344 346 354 356 360 6 13 22 25 43 62 90 124 144 151 156 160 162
306 311 306 304 311 315 314 312 311 309 308 311 316 317 315 310 304 296 311 320 316 322 330 336 337 341 347 349 352 357 1 9 12 22 34 50 63 75 88 106 118 126 131 135
294 294 294 305 311 316 327 341 355 358 2 11 4 4 9 360 352 333 318 318 316 317 331 336 338 342 350 355 0 1 4 10 18 22 28 38 54 66 78 91 102 111 119 126
277 282 294 310 319 328 335 343 348 348 358 350 347 357 357 352 340 333 330 330 328 313 328 338 337 344 356 2 1 2 3 10 17 27 40 48 57 62 68 79 90 105 120 127
266 281 304 311 317 329 336 339 336 341 348 356 356 354 353 350 345 340 330 322 326 311 326 336 339 347 359 360 357 0 2 5 17 24 26 40 53 75 87 96 108 115 119 120
261 288 296 273 296 319 334 336 339 351 353 353 351 347 346 344 344 345 341 330 317 318 328 338 346 353 1 3 7 13 16 15 11 13 24 33 44 66 84 106 120 121 124 128